Terminal Aerodrome Forecast
Issued by NWS

Home | Current Version | Previous Version | Text Only | Print | Product List | Glossary Off
Versions: 1 2 3 4 5 6 7 8 9 10 11 12 13 14 15 16 17 18 19 20 21 22 23 24 25 26 27 28 29 30 31

000
FTUS43 KLOT 161900 AAA
TAFGYY
TAF AMD
KGYY 161959Z 1620/1718 16018G28KT P6SM BKN120
     FM170300 16015KT P6SM SCT050 BKN120
     FM171300 19012KT P6SM SCT250
     FM171700 23012KT P6SM SCT250=

USA.gov is the U.S. government's official web portal to all federal, state and local government web resources and services.